EW8163 Weather Reports


Display with metric or nautical units.
time (UTC)temp
F
wind
direction
speed
MPH
gust
MPH
rain 1hr
in
rain 24hr
in
rain mn
in
humidity
%
barometer
mb
20260506211916 61 124 3.0 6.0 0.00 0.01 0.00 62 1022.0
20260506205914 62 3 1.0 3.0 0.00 0.01 0.00 60 1021.8
20260506205014 62 135 0.0 0.0 0.00 0.01 0.00 60 1021.8
20260506203015 61 180 0.0 1.0 0.00 0.02 0.00 62 1021.9
20260506202014 60 43 2.0 6.0 0.00 0.02 0.00 63 1021.9
20260506201015 60 8 4.0 8.0 0.00 0.02 0.00 63 1022.1
20260506200113 59 14 1.0 4.0 0.00 0.02 0.00 64 1022.0
20260506200015 59 347 2.0 4.0 0.00 0.02 0.00 64 1022.0
20260506195017 58 112 2.0 5.0 0.00 0.02 0.00 64 1022.1
20260506194114 58 150 1.0 5.0 0.00 0.02 0.00 63 1022.1
20260506192116 59 354 2.0 4.0 0.00 0.02 0.00 60 1022.0
20260506191115 59 72 1.0 6.0 0.00 0.02 0.00 59 1022.0
20260506190114 58 330 1.0 3.0 0.00 0.02 0.00 60 1021.9
20260506185116 58 104 2.0 5.0 0.00 0.02 0.00 62 1022.0
20260506185016 58 16 3.0 7.0 0.00 0.02 0.00 62 1022.0
20260506184015 57 87 2.0 3.0 0.00 0.02 0.00 61 1022.1
20260506183015 57 60 3.0 4.0 0.00 0.02 0.00 62 1022.0
20260506182014 58 326 1.0 6.0 0.00 0.02 0.00 61 1022.0
20260506181014 57 10 3.0 6.0 0.00 0.02 0.00 63 1021.7
20260506180915 57 33 2.0 4.0 0.00 0.02 0.00 63 1021.8
20260506175916 56 19 1.0 4.0 0.00 0.02 0.00 64 1021.9
20260506175014 56 13 2.0 4.0 0.00 0.02 0.00 64 1021.9
20260506174915 56 19 0.0 2.0 0.00 0.02 0.00 64 1022.0
20260506173915 56 67 0.0 2.0 0.00 0.02 0.00 67 1022.0
20260506172915 56 58 1.0 4.0 0.00 0.02 0.00 65 1021.7
20260506171916 55 3 0.0 3.0 0.00 0.03 0.00 67 1021.7
20260506170914 55 22 0.0 3.0 0.00 0.03 0.00 67 1021.5
20260506170816 55 13 0.0 1.0 0.00 0.03 0.00 66 1021.7
20260506165815 54 359 1.0 3.0 0.00 0.03 0.00 64 1021.7
20260506164714 54 349 2.0 3.0 0.00 0.03 0.00 66 1021.7
20260506162814 53 104 1.0 4.0 0.00 0.03 0.00 68 1021.5
20260506161814 53 360 0.0 0.0 0.00 0.03 0.00 68 1021.5
20260506160814 54 45 0.0 2.0 0.00 0.03 0.00 68 1021.5
20260506155816 52 112 0.0 1.0 0.00 0.03 0.00 70 1021.5
20260506155716 52 111 1.0 3.0 0.00 0.03 0.00 71 1021.6
20260506154714 50 90 0.0 1.0 0.00 0.03 0.00 71 1021.5
20260506153715 49 37 0.0 0.0 0.00 0.04 0.00 74 1021.4
20260506152814 48 135 0.0 1.0 0.00 0.04 0.00 80 1021.4
20260506151816 47 180 0.0 0.0 0.00 0.04 0.00 84 1021.4
20260506150815 45 180 0.0 0.0 0.00 0.04 0.00 84 1021.2
20260506145815 42 180 0.0 0.0 0.00 0.04 0.00 91 1021.1
20260506144813 40 180 0.0 0.0 0.00 0.04 0.00 91 1020.9
20260506144714 39 180 0.0 0.0 0.00 0.04 0.00 92 1020.9
20260506143713 37 180 0.0 0.0 0.00 0.04 0.00 97 1020.8
20260506142713 35 180 0.0 0.0 0.00 0.04 0.00 97 1020.6
20260506135816 33 180 0.0 0.0 0.00 0.05 0.00 97 1020.3
20260506134815 32 180 0.0 0.0 0.00 0.05 0.00 97 1020.2
20260506133815 32 180 0.0 0.0 0.00 0.05 0.00 96 1020.2
20260506133713 32 180 0.0 0.0 0.00 0.05 0.00 96 1020.2
20260506132715 32 180 0.0 0.0 0.00 0.05 0.00 96 1020.1
20260506125815 33 180 0.0 0.0 0.00 0.06 0.00 96 1019.8
20260506124814 34 180 0.0 0.0 0.00 0.06 0.00 96 1019.9
20260506124715 34 180 0.0 0.0 0.00 0.06 0.00 96 1019.8
20260506123713 35 180 0.0 0.0 0.00 0.06 0.00 96 1019.8
20260506122714 35 180 0.0 0.0 0.00 0.07 0.00 96 1019.8
20260506121715 35 180 0.0 0.0 0.00 0.07 0.00 96 1020.0
20260506120714 35 180 0.0 0.0 0.00 0.07 0.00 95 1019.9
20260506114713 35 180 0.0 0.0 0.00 0.08 0.00 96 1019.9
20260506112714 37 180 0.0 0.0 0.00 0.09 0.00 95 1019.8
20260506110713 38 180 0.0 0.0 0.00 0.09 0.00 95 1019.5
20260506104715 39 180 0.0 0.0 0.00 0.09 0.00 96 1019.5
20260506103714 39 180 0.0 0.0 0.00 0.09 0.00 96 1019.5
20260506102714 39 180 0.0 0.0 0.00 0.09 0.00 96 1019.3
20260506102612 39 180 0.0 0.0 0.00 0.09 0.00 96 1019.3
20260506102515 39 180 0.0 0.0 0.00 0.09 0.00 96 1019.3
20260506101514 39 180 0.0 0.0 0.00 0.09 0.00 96 1019.3
20260506100515 39 180 0.0 0.0 0.00 0.09 0.00 95 1019.3
20260506095614 39 180 0.0 0.0 0.00 0.09 0.00 95 1019.3
20260506095515 39 180 0.0 0.0 0.00 0.09 0.00 95 1019.5
20260506094613 39 180 0.0 0.0 0.00 0.09 0.00 96 1019.3
20260506093614 39 180 0.0 0.0 0.00 0.09 0.00 96 1019.3
20260506091614 38 180 0.0 0.0 0.00 0.09 0.00 95 1019.5
20260506090713 38 180 0.0 0.0 0.00 0.09 0.00 96 1019.6
20260506085714 38 180 0.0 0.0 0.00 0.09 0.00 96 1019.6
20260506084714 38 180 0.0 0.0 0.00 0.09 0.00 96 1019.6
20260506082813 38 180 0.0 0.0 0.00 0.09 0.00 95 1019.6
20260506081813 37 135 0.0 0.0 0.00 0.09 0.00 96 1019.8
20260506080814 37 135 0.0 0.0 0.00 0.09 0.00 97 1019.5
20260506073014 36 135 0.0 0.0 0.00 0.09 0.00 96 1019.3
20260506072915 36 135 0.0 0.0 0.00 0.09 0.00 96 1019.4
20260506071914 36 135 0.0 0.0 0.00 0.09 0.00 97 1019.2
20260506071812 36 135 0.0 0.0 0.00 0.09 0.00 97 1019.2
20260506070814 35 135 0.0 0.0 0.00 0.09 0.00 96 1019.0
20260506062023 35 135 0.0 0.0 0.00 0.09 0.09 96 1018.5
20260506061024 35 135 0.0 0.0 0.00 0.09 0.09 96 1018.3
20260506060124 36 135 0.0 0.0 0.00 0.09 0.09 96 1018.3
20260506051126 37 135 0.0 0.0 0.00 0.09 0.09 94 1017.9
20260506050124 38 135 0.0 0.0 0.00 0.09 0.09 94 1017.8
20260506044124 39 135 0.0 0.0 0.00 0.09 0.09 94 1017.9
20260506044025 39 135 0.0 0.0 0.00 0.09 0.09 94 1017.7
20260506043123 39 135 0.0 0.0 0.00 0.09 0.09 94 1017.8
20260506042124 39 135 0.0 0.0 0.00 0.09 0.09 93 1017.8
20260506041126 40 135 0.0 0.0 0.00 0.09 0.09 93 1017.6
20260506041025 40 135 0.0 0.0 0.00 0.09 0.09 93 1017.6
20260506040028 41 135 0.0 0.0 0.00 0.09 0.09 93 1017.6
20260506035923 41 135 0.0 0.0 0.00 0.09 0.09 92 1017.6
20260506034925 41 135 0.0 0.0 0.00 0.09 0.09 92 1017.6
20260506032925 41 135 0.0 0.0 0.00 0.09 0.09 92 1017.4
20260506031824 42 135 0.0 0.0 0.00 0.09 0.09 91 1017.2
20260506025823 42 135 0.0 0.0 0.00 0.09 0.09 92 1017.1
20260506024825 42 135 0.0 0.0 0.00 0.09 0.09 92 1017.0
20260506023824 42 90 0.0 0.0 0.00 0.09 0.09 91 1017.0
20260506023723 42 90 0.0 0.0 0.00 0.09 0.09 92 1017.0
20260506021726 42 315 0.0 0.0 0.00 0.09 0.09 92 1016.7
20260506020723 42 22 0.0 0.0 0.00 0.09 0.09 92 1016.5
20260506020625 42 353 0.0 0.0 0.00 0.09 0.09 92 1016.5
20260506015626 42 315 0.0 0.0 0.00 0.09 0.09 92 1016.5
20260506014622 42 329 1.0 2.0 0.00 0.09 0.09 92 1016.4
20260506011624 42 22 0.0 0.0 0.00 0.09 0.09 92 1016.3
20260506011526 42 327 1.0 3.0 0.00 0.09 0.09 93 1016.5
20260506005525 42 360 0.0 2.0 0.00 0.09 0.09 92 1016.2
20260506005424 42 19 0.0 0.0 0.00 0.09 0.09 92 1016.4
20260506005325 42 14 0.0 2.0 0.00 0.09 0.09 92 1016.3
20260506004424 42 304 0.0 2.0 0.00 0.09 0.09 91 1016.2
20260506003425 43 157 0.0 0.0 0.00 0.09 0.09 91 1016.3
20260506002522 43 157 0.0 3.0 0.00 0.09 0.09 91 1016.3
20260506001524 43 27 0.0 3.0 0.00 0.09 0.09 89 1016.2
20260505235523 44 90 0.0 0.0 0.00 0.09 0.09 90 1016.2
20260505234524 44 11 0.0 2.0 0.00 0.09 0.09 87 1016.3
20260505233525 44 360 1.0 3.0 0.00 0.09 0.09 87 1016.2
20260505232525 44 78 0.0 1.0 0.00 0.09 0.09 85 1016.2
20260505231623 44 10 1.0 2.0 0.00 0.09 0.09 84 1016.2
20260505225623 44 337 0.0 3.0 0.00 0.09 0.09 85 1016.2
20260505224625 44 339 2.0 5.0 0.01 0.09 0.09 86 1016.0
20260505224524 44 315 0.0 0.0 0.01 0.09 0.09 86 1016.0
20260505223523 43 157 0.0 0.0 0.01 0.09 0.09 87 1016.0
20260505222523 43 360 0.0 0.0 0.01 0.09 0.09 87 1016.1
20260505221622 43 180 0.0 1.0 0.01 0.09 0.09 87 1016.0
20260505221524 43 180 0.0 2.0 0.01 0.09 0.09 87 1016.1
20260505214525 44 273 2.0 4.0 0.01 0.08 0.08 88 1016.0